Location: San Martino di Castrozza
(46.2667°N, 11.8000°E)
Time: 03:47:27
(UTC+00:00)

IRS-P3 - Pass Details

Date: 23 April 2021
Orbit: 814 x 818 km, 98.9° (Epoch: 15 May)

Event Time Altitude Azimuth Distance (km) Brightness Sun altitude
Rises 02:10:53 0° 15° (NNE) 3,360 8.3 -18.7°
Reaches altitude 10° 02:13:14 10° 16° (NNE) 2,423 7.5 -18.4°
Maximum altitude 02:18:37 81° 104° (ESE) 834 4.2 -17.7°
Enters shadow 02:22:19 21° 191° (S) 1,775 5.4 -17.2°
